Content
SEND FEEDBACK

Daily
Averages
Monthly
Summary
United States of America

ACHANG BAY, GUAM


Home > North America > United States > Guam
Elevation: 10 meters     Latitude: 13 16N     Longitude: 144 45E

WEATHER
 
SELECT A DAY
Number of Records: 342,702;   Date Range: 1/1/95 - 9/21/14
 
SHARE

PRINT THIS DATA

[ ← Previous Day ]
WEATHER ALMANAC - 25 DECEMBER, 2013
[ Next Day → ]
[ °F ]   °C
Weather ElementAverageHighLow
Temperature26.3 °C28 °C (1:03 pm)24 °C (10:21 am)
Dewpoint22.3 °C26 °C (11:03 am) (7:00 pm)
Humidity90.5 %100 % (9:50 am)79 % (1:13 pm)
Barometer1012.5 hPa1014.2 hPa (9:45 am)1009.8 hPa (2:58 pm)
Wind Speed36.2 km/h50.1 km/h (10:40 pm)
Wind Gust66.6 km/h (10:45 pm)
Weather ElementAverage
Visibility15.3 km
Wind DirectionENE (61.3 °)

Weather ElementTotal
Precipitation4.32 mm
Cooling Degree Days7.7 (Base 18.3)
Growing Degree Days16 (Base 10)
Averaged from 129 records on 25 December, 2013
WEATHER CONDITIONS BREAKOUT
WIND DIRECTION BREAKOUT
WEATHER BY HOUR - 25 DECEMBER, 2013
[ °F ]   °C
Local TimeTemperatureDewpointHumidityBarometerVisibilityWind DirectionWind SpeedGust SpeedPrecipitationEventsConditions
12:58 AM26.2 °C23.7 °C86 %1012.9 hPa16.1 kmNE (50°)42.6 km/h55.5 km/hScattered Clouds
1:03 AM26 °C24 °C89 %1013.5 hPa16.1 kmNE (50°)42.6 km/h55.5 km/hMostly Cloudy
1:08 AM26 °C24 °C89 %1013.5 hPa16.1 kmENE (60°)40.7 km/h55.5 km/hMostly Cloudy
1:18 AM26 °C24 °C89 %1013.5 hPa16.1 kmENE (60°)37 km/h48.1 km/hMostly Cloudy
1:58 AM26.5 °C23.5 °C83 %1012.2 hPa16.1 kmNE (50°)38.9 km/h53.8 km/hMostly Cloudy
2:23 AM26 °C24 °C89 %1012.9 hPa16.1 kmENE (60°)44.4 km/h57.5 km/hMostly Cloudy
2:28 AM26 °C23 °C83 %1012.9 hPa16.1 kmNE (50°)42.6 km/h57.5 km/hMostly Cloudy
2:33 AM26 °C24 °C89 %1012.9 hPa16.1 kmNE (50°)38.9 km/h57.5 km/hMostly Cloudy
2:38 AM26 °C24 °C89 %1012.9 hPa16.1 kmNE (50°)42.6 km/h51.8 km/hMostly Cloudy
2:43 AM26 °C24 °C89 %1012.5 hPa16.1 kmENE (60°)37 km/h51.8 km/hMostly Cloudy
2:53 AM26 °C23 °C83 %1012.5 hPa16.1 kmNE (50°)38.9 km/h51.8 km/hMostly Cloudy
2:58 AM26.3 °C23.3 °C83 %1011.2 hPa16.1 kmNE (50°)40.7 km/h48.1 km/hMostly Cloudy
3:43 AM26 °C24 °C89 %1012.2 hPa16.1 kmENE (60°)40.7 km/h51.8 km/hMostly Cloudy
3:48 AM26 °C24 °C89 %1012.2 hPa16.1 kmNE (50°)40.7 km/h51.8 km/hMostly Cloudy
3:58 AM26.2 °C23.7 °C86 %1011.5 hPa16.1 kmNE (50°)40.7 km/h50.1 km/hMostly Cloudy
4:03 AM26 °C24 °C89 %1012.5 hPa16.1 kmENE (60°)40.7 km/h50.1 km/hMostly Cloudy
4:58 AM26.1 °C23.1 °C83 %1011.5 hPa16.1 kmENE (60°)37 km/h50.1 km/hMostly Cloudy
5:53 AM26 °C24 °C89 %1012.9 hPa16.1 kmNE (50°)38.9 km/h50.1 km/hMostly Cloudy
5:58 AM25.9 °C24 °C89 %1011.9 hPa16.1 kmNE (50°)37 km/h50.1 km/hMostly Cloudy
6:08 AM26 °C24 °C89 %1012.9 hPa16.1 kmNE (50°)44.4 km/h50.1 km/hScattered Clouds
6:13 AM26 °C24 °C89 %1012.9 hPa16.1 kmNE (50°)44.4 km/h53.8 km/hMostly Cloudy
6:23 AM26 °C24 °C89 %1013.2 hPa16.1 kmENE (60°)35.2 km/h50.1 km/hScattered Clouds
6:33 AM26 °C24 °C89 %1013.2 hPa16.1 kmNE (50°)40.7 km/h53.8 km/hScattered Clouds
6:58 AM25.8 °C23.9 °C89 %1012.2 hPa16.1 kmENE (60°)35.2 km/h46.3 km/hScattered Clouds
7:58 AM26.3 °C23.7 °C86 %1012.9 hPa16.1 kmENE (60°)37 km/h48.1 km/hPartly Cloudy
8:58 AM27 °C23.9 °C83 %1013.2 hPa16.1 kmENE (60°)37 km/h48.1 km/hPartly Cloudy
9:33 AM27 °C24 °C84 %1013.9 hPa16.1 kmENE (60°)35.2 km/h48.1 km/hMostly Cloudy
9:40 AM27 °C25 °C89 %1013.9 hPa6.4 kmENE (70°)37 km/h48.1 km/hRainLight Rain
9:45 AM26 °C25 °C94 %1014.2 hPa2.9 kmENE (70°)35.2 km/h53.8 km/hRainHeavy Rain
9:50 AM25 °C25 °C100 %1014.2 hPa4 kmENE (70°)38.9 km/h53.8 km/hRainLight Rain
9:55 AM26 °C25 °C94 %1014.2 hPa12.9 kmENE (70°)37 km/h44.4 km/hMostly Cloudy
9:58 AM25.8 °C25.3 °C97 %1012.9 hPa16.1 kmENE (70°)35.2 km/h46.3 km/h2.54 mmMostly Cloudy
10:03 AM26 °C25 °C94 %1013.9 hPa16.1 kmENE (70°)33.3 km/h46.3 km/hMostly Cloudy
10:11 AM26 °C25 °C94 %1013.9 hPa16.1 kmEast (100°)44.4 km/h62.9 km/hLight Drizzle
10:16 AM25 °C24 °C94 %1013.9 hPa12.9 kmEast (100°)35.2 km/h62.9 km/hRainLight Rain
10:21 AM24 °C24 °C100 %1013.9 hPa8 kmEast (90°)33.3 km/h59.2 km/hRainLight Rain
10:24 AM24 °C24 °C100 %1014.2 hPa8 kmEast (80°)29.6 km/h59.2 km/hMostly Cloudy
10:29 AM25 °C25 °C100 %1013.9 hPa16.1 kmENE (60°)27.8 km/h40.7 km/hMostly Cloudy
10:39 AM25 °C25 °C100 %1013.9 hPa14.5 kmENE (70°)35.2 km/h42.6 km/hMostly Cloudy
10:44 AM25 °C25 °C100 %1013.9 hPa16.1 kmEast (80°)31.5 km/h42.6 km/hMostly Cloudy
10:58 AM26.2 °C25.8 °C98 %1012.9 hPa16.1 kmENE (70°)37 km/h46.3 km/h0.51 mmMostly Cloudy
11:03 AM27 °C26 °C94 %1013.5 hPa16.1 kmENE (60°)31.5 km/h46.3 km/hMostly Cloudy
11:18 AM27 °C25 °C89 %1013.2 hPa16.1 kmENE (70°)38.9 km/h46.3 km/hMostly Cloudy
11:33 AM27 °C26 °C94 %1013.2 hPa16.1 kmENE (60°)37 km/hMostly Cloudy
11:38 AM27 °C25 °C89 %1013.2 hPa16.1 kmENE (70°)37 km/h44.4 km/hMostly Cloudy
11:47 AM27 °C25 °C89 %1012.9 hPa16.1 kmENE (70°)35.2 km/h50.1 km/hLight Drizzle
11:52 AM27 °C26 °C94 %1012.9 hPa16.1 kmENE (70°)33.3 km/h50.1 km/hLight Drizzle
11:54 AM27 °C26 °C94 %1012.9 hPa16.1 kmENE (60°)38.9 km/h48.1 km/hMostly Cloudy
11:58 AM27 °C26 °C94 %1011.9 hPa16.1 kmENE (70°)40.7 km/h46.3 km/h0 mmMostly Cloudy
12:03 PM27 °C25 °C89 %1012.9 hPa16.1 kmENE (60°)38.9 km/h46.3 km/hMostly Cloudy
12:08 PM27 °C25 °C89 %1012.9 hPa16.1 kmENE (60°)29.6 km/hMostly Cloudy
12:18 PM27 °C25 °C89 %1012.5 hPa16.1 kmENE (60°)35.2 km/hMostly Cloudy
12:23 PM27 °C25 °C89 %1012.5 hPa16.1 kmENE (60°)33.3 km/hMostly Cloudy
12:33 PM27 °C25 °C89 %1012.2 hPa16.1 kmENE (60°)29.6 km/hMostly Cloudy
12:48 PM27 °C26 °C94 %1012.2 hPa16.1 kmENE (60°)35.2 km/h42.6 km/hMostly Cloudy
12:58 PM27.3 °C25.5 °C90 %1011.2 hPa16.1 kmENE (70°)37 km/h46.3 km/hMostly Cloudy
1:03 PM28 °C25 °C84 %1011.9 hPa16.1 kmENE (60°)35.2 km/h48.1 km/hMostly Cloudy
1:08 PM27 °C25 °C89 %1011.9 hPa16.1 kmENE (70°)33.3 km/h48.1 km/hMostly Cloudy
1:13 PM28 °C24 °C79 %1011.9 hPa16.1 kmENE (60°)37 km/h48.1 km/hMostly Cloudy
1:23 PM28 °C24 °C79 %1011.5 hPa16.1 kmENE (60°)37 km/h44.4 km/hMostly Cloudy
1:28 PM28 °C25 °C84 %1011.5 hPa16.1 kmENE (70°)37 km/hScattered Clouds
1:33 PM28 °C25 °C84 %1011.5 hPa16.1 kmENE (60°)35.2 km/hMostly Cloudy
1:48 PM27 °C24 °C84 %1011.2 hPa16.1 kmENE (60°)35.2 km/h44.4 km/hMostly Cloudy
1:58 PM28 °C24.9 °C83 %1010.5 hPa16.1 kmNE (50°)29.6 km/h44.4 km/hMostly Cloudy
2:03 PM28 °C25 °C84 %1011.2 hPa16.1 kmNE (50°)35.2 km/h40.7 km/hMostly Cloudy
2:18 PM27 °C25 °C89 %1011.2 hPa14.5 kmENE (60°)38.9 km/h44.4 km/hMostly Cloudy
2:20 PM27 °C25 °C89 %1011.2 hPa12.9 kmENE (70°)33.3 km/h44.4 km/hRainLight Rain
2:25 PM26 °C25 °C94 %1010.8 hPa12.9 kmENE (60°)29.6 km/h46.3 km/hRainLight Rain
2:29 PM27 °C24 °C84 %1011.2 hPa16.1 kmENE (60°)33.3 km/h46.3 km/hScattered Clouds
2:58 PM27.2 °C24.8 °C87 %1009.8 hPa16.1 kmENE (60°)33.3 km/h44.4 km/h0 mmScattered Clouds
3:03 PM27 °C25 °C89 %1010.8 hPa16.1 kmNE (50°)40.7 km/h50.1 km/hMostly Cloudy
3:28 PM27 °C24 °C84 %1010.8 hPa16.1 kmENE (60°)33.3 km/hMostly Cloudy
3:33 PM27 °C25 °C89 %1010.8 hPa16.1 kmNE (50°)38.9 km/hMostly Cloudy
3:48 PM28 °C24 °C79 %1010.8 hPa16.1 kmNE (50°)40.7 km/h48.1 km/hScattered Clouds
3:53 PM28 °C24 °C79 %1011.2 hPa16.1 kmNE (50°)35.2 km/h48.1 km/hMostly Cloudy
3:58 PM27.9 °C24.4 °C81 %1009.8 hPa16.1 kmNE (50°)42.6 km/h50.1 km/hMostly Cloudy
4:08 PM28 °C25 °C84 %1010.8 hPa16.1 kmNE (50°)38.9 km/h46.3 km/hMostly Cloudy
4:13 PM28 °C25 °C84 %1011.2 hPa16.1 kmNE (50°)35.2 km/h46.3 km/hScattered Clouds
4:18 PM28 °C25 °C84 %1011.2 hPa16.1 kmNE (50°)38.9 km/h46.3 km/hMostly Cloudy
4:23 PM28 °C25 °C84 %1011.2 hPa16.1 kmNE (50°)37 km/h50.1 km/hMostly Cloudy
4:38 PM27 °C25 °C89 %1010.8 hPa16.1 kmNE (50°)37 km/hMostly Cloudy
4:58 PM27 °C24.8 °C88 %1009.8 hPa16.1 kmENE (60°)38.9 km/hMostly Cloudy
5:18 PM27 °C25 °C89 %1011.2 hPa16.1 kmNE (50°)37 km/hMostly Cloudy
5:53 PM27 °C25 °C89 %1011.2 hPa16.1 kmENE (60°)40.7 km/h55.5 km/hMostly Cloudy
5:58 PM26.8 °C24.7 °C88 %1010.5 hPa16.1 kmENE (60°)31.5 km/h55.5 km/hMostly Cloudy
6:08 PM27 °C25 °C89 %1011.5 hPa16.1 kmENE (60°)40.7 km/h48.1 km/hMostly Cloudy
6:09 PM27 °C25 °C89 %1011.5 hPa16.1 kmENE (60°)40.7 km/h48.1 km/hLight Drizzle
6:14 PM27 °C25 °C89 %1011.5 hPa16.1 kmENE (60°)37 km/h50.1 km/hLight Drizzle
6:21 PM27 °C25 °C89 %1011.5 hPa16.1 kmENE (60°)38.9 km/h50.1 km/hScattered Clouds
6:46 PM27 °C25 °C89 %1011.9 hPa16.1 kmNE (50°)33.3 km/h55.5 km/hMostly Cloudy
6:51 PM27 °C25 °C89 %1011.9 hPa16.1 kmENE (60°)35.2 km/h48.1 km/hMostly Cloudy
6:56 PM27 °C25 °C89 %1011.9 hPa16.1 kmENE (60°)35.2 km/h48.1 km/hMostly Cloudy
6:58 PM26.6 °C24.9 °C90 %1011.2 hPa16.1 kmENE (60°)42.6 km/h55.5 km/h0 mmMostly Cloudy
7:01 PM27 °C25 °C89 %1012.2 hPa16.1 kmENE (60°)38.9 km/h55.5 km/hRainLight Rain
7:10 PM26 °C26 °C100 %1012.2 hPa16.1 kmNE (50°)37 km/hScattered Clouds
7:30 PM26 °C25 °C94 %1012.5 hPa16.1 kmENE (60°)38.9 km/h50.1 km/hLight Drizzle
7:39 PM26 °C25 °C94 %1012.5 hPa16.1 kmENE (60°)37 km/h50.1 km/hPartly Cloudy
7:58 PM26.5 °C24.6 °C89 %1011.9 hPa16.1 kmENE (60°)37 km/h0 mmScattered Clouds
8:58 PM26.6 °C24 °C86 %1012.2 hPa16.1 kmENE (70°)33.3 km/h48.1 km/hMostly Cloudy
9:03 PM26 °C25 °C94 %1013.5 hPa16.1 kmEast (90°)29.6 km/hMostly Cloudy
9:08 PM25 °C25 °C100 %1013.2 hPa16.1 kmEast (80°)29.6 km/hMostly Cloudy
9:13 PM25 °C25 °C100 %1013.2 hPa16.1 kmEast (80°)25.9 km/hMostly Cloudy
9:18 PM25 °C25 °C100 %1013.2 hPa16.1 kmENE (70°)29.6 km/hOvercast
9:19 PM25 °C25 °C100 %1013.2 hPa16.1 kmENE (60°)31.5 km/hRainLight Rain
9:24 PM25 °C25 °C100 %1013.2 hPa16.1 kmENE (60°)40.7 km/h53.8 km/hLight Drizzle
9:29 PM26 °C25 °C94 %1013.2 hPa16.1 kmENE (60°)35.2 km/h53.8 km/hLight Drizzle
9:33 PM26 °C25 °C94 %1013.2 hPa16.1 kmENE (60°)35.2 km/h44.4 km/hMostly Cloudy
9:35 PM26 °C25 °C94 %1013.2 hPa16.1 kmENE (60°)40.7 km/h44.4 km/hRainLight Rain
9:40 PM26 °C25 °C94 %1013.2 hPa11.3 kmENE (60°)35.2 km/h44.4 km/hRainLight Rain
9:45 PM26 °C25 °C94 %1013.2 hPa9.7 kmENE (60°)33.3 km/h48.1 km/hRainLight Rain
9:50 PM26 °C25 °C94 %1013.2 hPa14.5 kmENE (60°)31.5 km/h48.1 km/hRainLight Rain
9:52 PM26 °C25 °C94 %1013.2 hPa16.1 kmENE (60°)33.3 km/h48.1 km/hMostly Cloudy
9:58 PM25.9 °C25 °C95 %1012.2 hPa16.1 kmENE (60°)37 km/h46.3 km/h0.25 mmMostly Cloudy
10:02 PM26 °C25 °C94 %1013.2 hPa16.1 kmENE (60°)33.3 km/h46.3 km/hLight Drizzle
10:12 PM26 °C25 °C94 %1013.5 hPa16.1 kmENE (60°)37 km/h48.1 km/hMostly Cloudy
10:40 PM26 °C25 °C94 %1013.5 hPa12.9 kmENE (60°)50.1 km/h48.1 km/hRainLight Rain
10:45 PM25 °C25 °C100 %1013.9 hPa6.4 kmENE (70°)44.4 km/h66.6 km/hRainLight Rain
10:50 PM24 °C24 °C100 %1013.9 hPa6.4 kmENE (70°)38.9 km/h66.6 km/hRainLight Rain
10:55 PM24 °C24 °C100 %1013.9 hPa12.9 kmENE (70°)37 km/h53.8 km/hRainLight Rain
10:58 PM24.2 °C24.2 °C100 %1012.9 hPa16.1 kmENE (70°)29.6 km/h42.6 km/h1.02 mmRainLight Rain
11:00 PM24 °C24 °C100 %1013.5 hPa16.1 kmENE (70°)27.8 km/h42.6 km/hOvercast
11:05 PM24 °C24 °C100 %1013.5 hPa16.1 kmENE (60°)31.5 km/h42.6 km/hOvercast
11:10 PM25 °C-17.8 °C1013.5 hPa16.1 kmNE (50°)27.8 km/h42.6 km/hOvercast
11:15 PM25 °C-17.8 °C1013.5 hPa16.1 kmENE (60°)24.1 km/hOvercast
11:46 PM25 °C-17.8 °C1013.2 hPa16.1 kmENE (60°)27.8 km/hRainLight Rain
11:51 PM25 °C-17.8 °C1013.2 hPa16.1 kmENE (60°)35.2 km/h40.7 km/hRainLight Rain
11:55 PM25 °C-17.8 °C1013.2 hPa16.1 kmENE (70°)31.5 km/h40.7 km/hMostly Cloudy
11:58 PM25 °C-17.8 °C1012.2 hPa16.1 kmENE (70°)31.5 km/h40.7 km/h0 mmMostly Cloudy
11:59 PM25 °C-17.8 °C1013.2 hPa16.1 kmENE (60°)31.5 km/h40.7 km/hLight Drizzle
Hourly data recorded from PGUA, located 0 kilometers away from Achang Bay, Guam







STORIES FROM OUR PARTNERS